CAPE
1 5 3 5 5 4 3 2 2 1 0 0 0 0 0 0 0 0 0 0 0 0 0 0 0 0 0 0 0 0 0 0 0 0 0 0 0 0 0 0 0 0 0 0 0 0 0
2 4 4 5 6 4 3 2 1 1 1 0 0 0 0 0 0 0 0 0 0 0 0 0 0 0 0 0 0 0 0 0 0 0 0 0 0 0 0 0 0 0 0 0 0 0 0
2 1 4 5 4 5 3 2 2 1 1 0 0 0 0 0 0 0 0 0 0 0 0 0 0 0 0 0 0 0 0 0 0 0 0 0 0 0 0 0 0 0 0 0 0 0 0
2 3 3 4 4 5 3 2 2 2 1 0 0 0 0 0 0 0 0 0 0 0 0 0 0 0 0 0 0 0 0 0 0 0 0 0 0 0 0 0 0 0 0 0 0 0 0
5 3 3 4 4 3 3 3 2 1 1 0 0 0 0 0 0 0 0 0 0 0 0 0 0 0 0 0 0 0 0 0 0 0 0 0 0 0 0 0 0 0 0 0 0 0 0
8 5 6 5 5 4 3 1 1 1 1 0 0 0 0 0 0 0 0 0 0 0 0 0 0 0 0 0 0 0 0 0 0 0 0 0 0 0 0 0 0 0 0 0 0 0 0
1 4 6 6 5 5 3 3 2 1 1 0 0 0 1 1 1 0 0 0 0 0 0 0 0 0 0 0 0 0 0 0 0 0 0 0 0 0 0 0 0 0 0 0 0 0 0
2 6 4 7 4 3 4 3 2 1 1 0 0 0 0 1 0 0 0 0 0 0 0 0 0 0 0 0 0 0 0 0 0 0 0 0 0 0 0 0 0 0 0 0 0 0 0
7 7 8 5 5 4 4 2 2 1 1 0 0 1 2 1 0 0 0 0 0 0 0 0 0 0 0 0 0 0 0 0 0 0 0 0 0 0 0 0 0 0 0 0 0 0 0
5 6 7 6 5 5 5 3 2 1 1 1 0 1 2 2 0 0 0 0 0 0 0 0 0 0 0 0 0 0 0 0 0 0 0 0 0 0 0 0 0 0 0 0 0 0 0
2 4 3 5 4 6 4 4 2 2 3 2 1 1 2 0 0 0 0 0 0 0 0 0 0 0 0 0 0 0 0 0 0 0 0 0 0 0 0 0 0 0 0 0 0 0 0
5 4 3 7 5 5 4 4 5 5 5 4 4 2 1 0 0 0 0 0 0 0 0 0 0 0 0 0 0 0 0 0 0 0 0 0 0 0 0 0 0 0 0 0 0 0 0
9 2 3 5 5 5 5 8 8 7 5 4 3 1 0 0 0 0 0 0 0 0 0 0 0 0 0 0 0 0 0 0 0 0 0 0 0 0 0 0 0 0 0 0 0 0 0
9 9 3 5 5 5 6 9 7 7 6 3 1 0 0 0 0 0 0 0 0 0 0 0 0 0 0 0 0 0 0 0 0 0 0 0 0 0 0 0 0 0 0 0 0 0 0
8 6 4 6 6 9 6 7 7 6 5 2 0 0 0 0 0 0 0 0 0 0 0 0 0 0 0 0 0 0 0 0 0 0 0 0 0 0 0 0 0 0 0 0 0 0 0
9 7 8 7 6 12 6 9 8 7 6 2 0 0 0 0 0 0 0 0 0 0 0 0 0 0 0 0 0 0 0 0 0 0 0 0 0 0 0 0 0 0 0 0 0 0 0
6 7 8 7 6 9 11 8 7 6 4 0 0 0 0 0 0 0 0 0 0 0 0 0 0 0 0 0 0 0 0 0 0 0 0 0 0 0 0 0 0 0 0 0 0 0 0
6 8 8 7 4 9 10 8 6 4 2 0 0 0 0 0 0 0 0 0 0 0 0 0 0 0 0 0 0 0 0 0 0 0 0 0 0 0 0 0 0 0 0 0 0 0 0
5 6 6 5 4 10 10 7 5 2 2 0 0 0 0 0 0 0 0 0 0 0 0 0 0 0 0 0 0 0 0 0 0 0 0 0 0 0 0 0 0 0 0 0 0 0 0
8 9 10 10 7 10 13 8 5 2 1 0 0 0 0 0 0 0 0 0 0 0 0 0 0 0 0 0 0 0 0 0 0 0 141 0 0 0 0 0 0 0 0 0 0 0 0
4 4 6 6 4 5 12 12 8 2 0 0 0 0 0 0 0 0 0 0 0 0 0 0 0 0 0 0 0 0 0 0 0 0 0 0 0 0 0 0 0 0 0 0 0 0 0
2 2 3 4 5 4 12 15 10 2 0 0 0 0 0 0 0 0 0 0 0 0 0 0 0 0 0 0 0 0 0 0 0 0 0 0 0 0 0 0 0 0 0 0 1 0 0
1 2 3 3 7 6 8 8 11 3 0 0 0 0 0 0 0 0 0 0 0 0 0 0 0 0 0 0 0 0 0 0 0 0 2 0 0 0 0 0 0 0 0 42 231 230 92
0 0 1 6 8 6 8 6 10 5 0 0 0 0 0 0 0 0 0 0 0 0 0 0 0 0 0 0 0 0 0 0 0 0 0 0 0 0 1 0 0 0 269 132 317 401 166
0 0 0 2 9 4 7 6 6 6 1 0 0 0 0 0 0 0 0 0 0 0 0 0 0 0 0 0 0 0 0 0 0 0 0 0 0 0 0 0 0 415 502 122 108 212 266
0 0 0 0 5 4 6 5 3 5 0 0 0 0 0 0 0 0 0 0 0 0 0 0 0 0 0 0 0 0 0 0 0 0 0 0 0 0 0 0 0 0 5 214 0 0 346
5 0 0 0 1 3 7 4 3 2 0 0 0 0 0 0 0 0 0 0 0 0 0 0 0 0 0 0 0 0 0 0 0 0 0 0 0 0 0 0 0 0 132 172 0 0 136
9 0 0 0 0 1 5 4 3 2 0 0 0 0 0 0 0 0 0 0 0 0 0 0 0 0 0 0 0 0 0 0 0 0 0 0 0 0 0 0 0 438 1060 30 0 274 297
10 0 0 0 0 0 3 3 2 2 1 0 0 0 0 0 0 0 0 0 0 0 0 0 0 0 0 0 0 0 0 0 0 0 0 0 0 0 0 0 99 140 479 644 138 406 107
CIN
0 0 0 0 0 0 0 0 0 0 0 0 0 0 0 0 0 0 0 0 0 0 0 0 0 0 0 0 0 0 0 0 0 0 0 0 0 0 0 0 0 0 0 0 0 0 0
-1 0 0 0 0 0 0 0 0 0 0 0 0 0 0 0 0 0 0 0 0 0 0 0 0 0 0 0 0 0 0 0 0 0 0 0 0 0 0 0 0 0 0 0 0 0 0
0 0 0 0 0 0 0 0 0 0 0 0 0 0 0 0 0 0 0 0 0 0 0 0 0 0 0 0 0 0 0 0 0 0 0 0 0 0 0 0 0 0 0 0 0 0 0
0 0 0 0 0 0 0 0 0 0 0 0 0 0 0 0 0 0 0 0 0 0 0 0 0 0 0 0 0 0 0 0 0 0 0 0 0 0 0 0 0 0 0 0 0 0 0
0 0 0 0 0 0 0 0 0 0 0 0 0 0 0 0 0 0 0 0 0 0 0 0 0 0 0 0 0 0 0 0 0 0 0 0 0 0 0 0 0 0 0 0 0 0 0
0 0 0 0 0 0 0 0 0 0 0 0 0 0 0 0 0 0 0 0 0 0 0 0 0 0 0 0 0 0 0 0 0 0 0 0 0 0 0 0 0 0 0 0 0 0 0
0 0 0 0 0 0 0 0 0 0 0 0 0 0 0 0 0 0 0 0 0 0 0 0 0 0 0 0 0 0 0 0 0 0 0 0 0 0 0 0 0 0 0 0 0 0 0
0 0 0 0 0 0 0 0 0 0 0 0 0 0 0 0 0 0 0 0 0 0 0 0 0 0 0 0 0 0 0 0 0 0 0 0 0 0 0 0 0 0 0 0 0 0 0
0 0 0 0 0 0 0 0 0 0 0 0 0 0 0 0 0 0 0 0 0 0 0 0 0 0 0 0 0 0 0 0 0 0 0 0 0 0 0 0 0 0 0 0 0 0 0
0 0 0 0 0 0 0 0 0 0 0 0 0 0 0 0 0 0 0 0 0 0 0 0 0 0 0 0 0 0 0 0 0 0 0 0 0 0 0 0 0 0 0 0 0 0 0
0 0 0 0 0 0 0 0 0 0 0 0 0 0 0 0 0 0 0 0 0 0 0 0 0 0 0 0 0 0 0 0 0 0 0 0 0 0 0 0 0 0 0 0 0 0 0
0 0 0 0 0 0 0 0 0 0 0 0 0 0 0 0 0 0 0 0 0 0 0 0 0 0 0 0 0 0 0 0 0 0 0 0 0 0 0 0 0 0 0 0 0 0 0
0 0 0 0 0 0 0 0 0 0 0 0 0 0 0 0 0 0 0 0 0 0 0 0 0 0 0 0 0 0 0 0 0 0 0 0 0 0 0 0 0 0 0 0 0 0 0
0 0 0 0 0 0 0 0 0 0 0 0 0 0 0 0 0 0 0 0 0 0 0 0 0 0 0 0 0 0 0 0 0 0 0 0 0 0 0 0 0 0 0 0 0 0 0
0 0 0 0 0 0 0 0 0 0 0 0 0 0 0 0 0 0 0 0 0 0 0 0 0 0 0 0 0 0 0 0 0 0 0 0 0 0 0 0 0 0 0 0 0 0 0
0 0 0 0 0 0 0 0 0 0 0 0 0 0 0 0 0 0 0 0 0 0 0 0 0 0 0 0 0 0 0 0 0 0 0 0 0 0 0 0 0 0 0 0 0 0 0
0 0 0 0 0 0 0 0 0 0 0 0 0 0 0 0 0 0 0 0 0 0 0 0 0 0 0 0 0 0 0 0 0 0 0 0 0 0 0 0 0 0 0 0 0 0 0
0 0 0 0 0 0 0 0 0 0 0 0 0 0 0 0 0 0 0 0 0 0 0 0 0 0 0 0 0 0 0 0 0 0 0 0 0 0 0 0 0 0 0 0 0 0 0
0 0 0 0 0 0 0 0 0 0 0 0 0 0 0 0 0 0 0 0 0 0 0 0 0 0 0 0 0 0 0 0 0 0 0 0 0 0 0 0 0 0 0 0 0 0 0
0 0 0 0 0 0 0 0 0 0 0 0 0 0 0 0 0 0 0 0 0 0 0 0 0 0 0 0 0 0 0 0 0 0 -288 0 0 0 0 0 0 0 0 0 0 0 0
0 0 0 0 0 0 0 0 0 0 0 0 0 0 0 0 0 0 0 0 0 0 0 0 0 0 0 0 0 0 0 0 0 0 0 0 0 0 0 0 0 0 0 0 0 0 0
0 0 0 0 0 0 0 0 0 0 0 0 0 0 0 0 0 0 0 0 0 0 0 0 0 0 0 0 0 0 0 0 0 0 0 0 0 0 0 0 0 0 0 0 -4 0 0
0 0 0 0 0 0 0 0 0 0 0 0 0 0 0 0 0 0 0 0 0 0 0 0 0 0 0 0 0 0 0 0 0 0 -430 0 0 0 0 0 0 0 0 -287 -358 -482 -369
0 0 0 0 0 0 0 0 0 0 -1 0 0 0 0 0 0 0 0 0 0 0 0 0 0 0 0 0 0 0 0 0 0 0 0 0 0 0 -162 0 0 0 -460 -356 -285 -454 -574
0 0 0 0 0 0 0 0 0 0 0 0 0 0 0 0 0 0 0 0 0 0 0 0 0 0 0 0 0 0 0 0 0 0 0 0 0 0 0 0 0 -217 -253 -296 -174 -187 -478
0 0 0 0 0 0 0 0 0 0 0 0 0 0 0 0 0 0 0 0 0 0 0 0 0 0 0 0 0 0 0 0 0 0 0 0 0 0 0 0 -61 0 -284 -361 0 0 -453
0 0 0 0 0 0 0 0 0 0 0 0 0 0 0 0 0 0 0 0 0 0 0 0 0 0 0 0 0 0 0 0 0 0 0 0 0 0 0 0 0 0 -181 -330 0 0 -257
0 0 0 0 0 0 0 0 0 0 0 0 0 0 0 0 0 0 0 0 0 0 0 0 0 0 0 0 0 0 0 0 0 0 0 0 0 0 0 0 0 -441 -206 -222 0 -279 -534
0 0 0 0 0 0 0 0 0 0 0 0 0 0 0 0 0 0 0 0 0 0 0 0 0 0 0 0 0 0 0 0 0 0 0 0 0 0 0 0 -487 -533 -396 -386 -644 -412 -463
Wind_Speed
14 14 15 15 16 15 15 15 16 16 17 18 19 19 18 18 20 20 20 20 19 18 17 17 15 14 3 4 6 5 9 3 2 3 3 4 4 1 2 2 5 1 3 3 3 6 5
14 14 15 15 16 16 17 17 17 17 18 19 19 19 20 20 20 21 21 19 19 19 18 16 13 11 3 2 2 5 6 2 1 1 4 1 2 2 3 2 1 4 6 8 4 2 4
13 14 14 15 16 17 17 18 18 18 19 19 20 21 21 21 21 21 21 21 20 19 18 13 8 2 2 11 4 3 5 1 1 2 3 3 4 3 2 4 3 2 6 6 2 4 3
14 14 15 15 16 17 18 18 19 20 20 20 20 21 21 22 22 23 23 22 23 19 13 6 3 1 7 4 3 2 4 2 3 3 2 5 3 2 2 3 7 6 6 5 6 1 4
13 14 15 16 16 17 18 18 19 19 20 20 21 21 22 23 23 23 24 24 20 6 2 6 2 2 9 6 2 4 4 2 3 1 4 1 4 3 6 4 6 7 2 3 11 2 1
14 14 15 16 17 17 18 19 19 20 21 21 22 22 22 23 23 23 26 21 4 2 1 3 1 3 5 1 4 2 2 2 2 5 5 7 6 4 4 5 3 1 4 4 6 6 2
14 14 15 16 16 17 18 19 19 20 20 21 22 22 22 23 23 23 14 4 7 4 4 4 2 3 5 8 3 3 3 5 2 7 2 4 6 2 3 2 4 2 2 5 6 5 2
14 15 15 16 17 18 18 19 19 20 20 21 22 22 23 24 23 21 2 7 6 3 9 6 6 7 6 1 4 3 4 5 3 2 2 7 2 5 2 3 1 2 3 5 7 3 3
15 16 16 17 18 18 19 20 20 20 21 21 22 22 22 24 25 4 2 4 2 5 1 9 6 5 5 9 7 6 7 3 3 4 3 5 4 4 3 3 2 3 4 3 5 5 3
16 16 17 18 19 19 20 21 22 22 22 22 21 21 20 28 3 5 3 4 4 4 6 9 4 8 5 7 4 8 8 6 1 7 7 4 5 2 2 4 6 1 5 1 2 4 1
15 16 17 18 19 20 21 22 23 23 23 22 22 21 17 10 3 2 4 7 5 4 3 4 3 1 1 10 4 3 4 4 7 5 6 6 2 1 3 4 5 7 3 2 3 3 3
15 15 17 18 20 21 22 23 23 23 23 23 22 20 16 1 0 7 8 8 4 8 7 6 0 2 4 2 2 3 3 3 4 3 1 6 3 3 6 1 4 6 5 8 5 3 5
15 16 17 18 19 21 22 22 23 24 24 25 24 18 7 2 4 6 6 5 6 4 5 5 2 1 2 2 3 3 6 4 6 5 2 3 3 4 3 2 3 6 7 4 5 7 6
16 17 18 19 20 21 22 23 24 25 26 26 26 18 5 5 3 6 3 7 3 5 6 5 4 2 6 6 3 5 5 5 2 4 3 4 5 4 3 5 7 2 8 8 3 3 5
16 17 18 19 20 21 23 24 25 26 27 27 21 2 1 4 6 3 6 4 9 6 3 6 7 1 3 2 4 3 7 6 8 8 6 5 5 3 3 3 6 3 2 4 9 3 3
15 16 17 18 20 20 22 23 25 27 27 26 3 3 3 2 6 4 6 6 5 4 5 2 2 1 1 2 4 7 7 5 6 10 6 5 0 2 2 4 5 4 6 4 4 3 2
13 15 16 18 19 21 22 24 25 27 29 19 2 4 4 2 1 6 5 7 5 6 4 1 2 3 4 2 5 4 8 5 6 4 6 5 3 5 1 1 6 2 3 8 6 4 6
12 14 16 18 20 21 22 23 25 26 28 7 2 3 3 2 5 1 3 4 4 4 2 3 1 4 4 3 3 5 9 7 5 8 11 7 5 4 9 2 1 1 5 6 7 4 2
12 15 17 19 20 20 21 23 25 26 21 2 3 1 3 4 3 2 5 4 4 2 3 2 3 5 1 3 3 3 4 2 3 9 11 8 0 3 9 7 3 5 3 5 6 5 4
10 12 14 16 18 19 21 24 25 26 16 3 2 3 5 5 1 3 2 4 4 3 5 4 5 2 2 2 1 3 3 2 4 2 3 11 4 8 8 8 5 3 4 5 6 5 6
11 13 15 19 21 22 22 23 25 27 15 1 4 1 3 2 2 2 1 3 3 5 3 3 3 7 3 2 3 3 2 5 4 6 4 5 8 5 2 5 3 6 5 6 4 6 6
11 13 15 18 19 20 21 22 24 27 13 4 3 3 4 1 3 1 2 2 3 4 5 4 4 6 6 6 6 2 1 2 1 5 4 2 3 4 3 2 5 5 2 6 4 4 2
11 11 13 15 16 18 19 20 22 24 13 4 3 2 3 2 4 1 2 3 4 3 7 7 4 2 4 4 3 1 2 1 3 2 2 3 5 4 4 2 3 3 1 2 3 0 1
9 10 11 13 14 16 18 20 19 19 12 1 0 2 3 2 1 3 4 6 6 4 5 4 1 2 1 5 2 2 3 3 1 6 2 5 4 3 3 2 3 6 3 4 6 3 4
7 8 9 11 13 15 17 18 19 18 18 3 0 3 2 1 2 5 7 5 5 5 2 4 4 3 5 4 5 6 7 6 4 7 8 5 6 5 5 2 2 5 3 3 3 1 6
6 7 9 10 12 14 15 17 18 17 18 3 1 1 3 3 3 4 4 3 3 4 7 5 5 6 4 4 4 4 4 4 3 2 4 6 7 6 3 4 5 6 1 2 3 5 6
6 5 7 9 9 12 14 15 17 18 17 3 1 2 3 1 4 2 1 2 2 1 2 4 8 9 4 3 3 3 3 2 3 4 1 4 5 5 4 2 6 5 4 1 7 9 3
7 5 5 7 8 10 13 14 15 17 18 6 2 3 3 1 7 3 3 2 3 2 2 5 3 3 4 5 3 2 2 0 3 1 2 4 4 2 2 5 6 4 4 5 5 2 4
8 7 5 6 7 9 11 13 14 15 16 8 2 2 1 3 7 3 7 11 6 8 3 2 2 2 1 3 2 2 3 3 1 1 4 2 5 3 6 5 2 4 3 4 2 1 2
Wind_Direction
33 32 24 21 18 15 13 9 6 1 355 351 349 347 344 341 339 334 330 325 317 316 317 319 325 327 350 7 258 95 113 137 62 349 6 14 32 80 53 333 353 163 285 226 199 240 233
30 25 22 17 13 11 9 4 2 0 356 352 347 343 340 341 337 330 325 318 315 313 312 315 316 315 20 322 357 122 117 108 7 46 338 319 336 312 90 356 102 317 296 293 348 271 246
29 24 19 15 11 7 5 2 359 358 354 350 346 343 340 336 332 327 322 316 312 309 305 301 301 339 66 238 349 161 152 210 200 186 329 278 320 31 146 336 322 285 352 351 235 207 177
25 20 17 13 10 6 2 359 358 355 351 348 345 340 338 333 329 327 318 310 311 308 296 267 224 149 249 260 317 224 148 303 217 262 235 269 261 55 36 318 15 28 49 10 299 97 220
26 19 13 9 7 5 1 358 355 352 348 346 343 340 336 331 327 324 315 311 309 305 78 134 121 75 273 317 288 248 171 236 281 181 241 294 67 76 19 69 22 1 315 336 320 333 130
20 14 10 8 6 3 358 356 353 351 347 344 341 338 335 330 325 324 318 305 279 348 160 216 261 31 288 246 289 231 196 96 356 339 20 45 51 66 41 73 188 294 338 314 247 297 288
18 14 11 8 5 2 356 353 351 349 346 342 339 337 333 327 326 326 340 23 17 346 19 220 199 253 274 292 288 262 155 115 93 47 55 359 57 194 213 182 117 133 222 250 262 280 267
15 12 9 6 3 358 353 351 350 347 344 340 338 335 332 327 324 321 309 80 106 215 310 262 236 261 259 56 308 307 132 124 115 181 18 16 243 218 213 219 203 195 256 281 291 335 139
15 9 8 5 2 354 353 350 348 346 343 340 336 335 334 327 320 355 338 107 59 138 186 292 217 210 204 144 208 251 137 137 134 146 155 159 226 85 198 245 228 236 191 235 217 341 38
11 11 5 4 359 355 351 349 346 344 340 337 335 336 336 326 44 319 286 339 329 184 49 279 275 268 158 155 255 210 172 148 153 188 168 219 259 228 301 255 142 267 216 202 40 53 287
9 8 6 3 358 355 351 348 345 342 337 333 334 335 335 335 272 301 313 337 328 64 1 251 231 103 131 158 174 206 182 64 165 184 111 243 211 327 349 207 170 221 116 56 72 84 71
7 7 4 1 358 354 350 347 342 339 335 332 331 330 330 158 170 254 322 321 60 47 255 326 14 159 131 246 164 81 129 76 151 165 339 237 274 246 214 10 161 138 77 46 54 73 47
4 5 1 359 357 354 350 345 342 339 335 331 327 319 298 287 230 320 315 45 53 144 323 320 332 53 142 203 198 112 147 166 157 106 274 318 230 268 190 130 63 76 58 358 3 16 208
2 1 357 1 356 353 349 346 343 339 336 331 325 316 215 219 306 349 50 55 156 229 258 299 322 286 190 160 194 168 129 183 214 101 118 143 318 197 175 184 170 83 140 147 190 188 264
1 359 2 358 356 352 353 347 343 339 338 335 323 342 264 271 202 357 76 95 205 213 283 330 322 20 335 263 168 144 175 199 201 166 166 143 272 296 229 157 120 176 117 161 104 7 60
1 3 359 357 355 352 353 347 343 340 339 337 337 350 294 14 156 76 81 221 231 231 318 348 297 353 332 289 161 155 179 210 209 186 146 213 48 241 271 103 44 155 151 77 13 147 220
3 0 360 358 357 352 352 347 345 343 339 335 23 51 306 5 31 52 161 226 262 255 244 273 274 303 266 256 188 207 200 247 209 145 119 130 102 287 5 85 182 115 95 54 112 106 152
0 2 2 360 357 353 354 349 348 346 342 40 56 54 310 34 56 15 161 205 279 281 325 310 245 230 252 300 257 219 208 232 140 147 156 188 150 203 239 271 229 198 132 131 118 220 83
359 4 4 1 359 354 355 352 350 347 345 338 76 254 318 77 121 306 294 284 262 274 259 265 270 222 44 295 308 215 211 249 360 154 165 183 91 33 347 1 17 84 83 100 107 92 186
353 3 5 6 4 357 358 355 351 349 354 78 71 54 336 53 135 128 350 280 277 240 254 230 259 226 334 304 14 283 311 3 360 144 95 104 123 157 184 204 149 132 155 176 119 105 170
353 1 4 9 6 1 357 354 353 351 350 65 30 197 166 293 344 347 306 295 298 324 266 223 273 224 183 260 318 297 322 329 32 352 69 109 178 168 261 216 151 153 175 167 129 159 130
354 359 4 7 5 0 355 355 358 355 345 75 83 40 355 311 302 318 178 267 239 261 225 274 218 274 177 189 192 243 336 8 276 334 79 19 180 133 40 66 157 119 146 139 74 113 305
354 358 360 359 4 360 355 356 4 5 5 66 327 338 104 320 346 8 255 287 264 350 270 236 261 203 169 208 196 269 182 317 317 233 110 82 123 78 185 335 86 23 90 100 107 114 120
342 354 354 352 359 359 0 1 6 11 26 104 194 109 57 294 24 291 302 297 283 271 264 330 128 226 275 306 118 56 30 350 71 26 80 118 86 73 125 61 178 256 319 173 138 170 208
324 343 347 349 353 358 2 2 7 7 11 98 4 78 87 282 253 293 313 299 319 307 299 305 345 308 312 34 60 36 350 11 7 24 20 69 107 79 118 88 298 327 245 166 126 287 192
299 328 338 346 352 356 2 3 5 7 8 74 24 110 97 108 253 310 313 340 349 326 343 320 318 306 52 72 70 129 190 218 313 33 19 49 66 105 91 110 196 229 291 338 78 319 196
274 302 326 342 350 356 1 3 5 6 8 59 331 35 92 82 271 326 322 297 340 10 262 307 338 347 22 68 82 142 210 199 169 149 150 26 15 121 125 140 286 276 317 337 86 233 184
259 274 309 333 341 353 357 360 4 5 7 33 279 357 85 186 277 224 288 322 3 43 58 300 358 348 4 61 109 197 115 357 59 323 115 146 129 143 124 97 271 21 294 180 226 198 166
247 254 282 313 332 348 353 356 0 2 4 30 7 336 24 166 248 283 256 261 219 226 171 331 163 245 283 74 45 100 56 35 102 202 344 39 160 192 174 215 276 290 259 277 228 325 135